QPF
0.02 0.01 0.01 0.01 0.01 0.01 0.01 0.01 0.02 0.01 0.01 0.01 0.01 0.02 0.02 0.01 0.01 0.01 0.01 0.02 0.02 0.02 0.02 0.02 0.01 0.00 0.00 0.00 0.01 0.01 0.01 0.00 0.00 0.01 0.01 0.01 0.02 0.02 0.03 0.02 0.02 0.03 0.04 0.03
0.03 0.02 0.01 0.01 0.01 0.01 0.01 0.00 0.01 0.01 0.01 0.00 0.00 0.01 0.02 0.01 0.01 0.01 0.01 0.01 0.01 0.00 0.00 0.00 0.00 0.00 0.00 0.00 0.00 0.01 0.01 0.01 0.01 0.01 0.01 0.01 0.02 0.03 0.03 0.03 0.03 0.04 0.05 0.04
0.04 0.03 0.03 0.02 0.01 0.00 0.00 0.00 0.00 0.01 0.01 0.01 0.01 0.01 0.01 0.01 0.01 0.01 0.00 0.00 0.00 0.00 0.00 0.00 0.00 0.00 0.00 0.00 0.00 0.01 0.02 0.03 0.03 0.01 0.01 0.01 0.03 0.05 0.04 0.03 0.04 0.06 0.06 0.05
0.06 0.04 0.05 0.02 0.00 0.00 0.00 0.00 0.00 0.01 0.00 0.01 0.01 0.01 0.01 0.01 0.01 0.01 0.01 0.00 0.00 0.00 0.00 0.00 0.00 0.00 0.00 0.00 0.00 0.00 0.01 0.02 0.03 0.02 0.02 0.04 0.04 0.05 0.04 0.04 0.04 0.04 0.05 0.06
0.07 0.05 0.02 0.00 0.00 0.00 0.00 0.01 0.01 0.01 0.00 0.01 0.01 0.02 0.02 0.01 0.01 0.01 0.01 0.01 0.00 0.01 0.01 0.01 0.01 0.00 0.01 0.01 0.00 0.00 0.00 0.01 0.02 0.03 0.04 0.05 0.05 0.05 0.04 0.03 0.03 0.03 0.04 0.05
0.09 0.06 0.03 0.01 0.00 0.00 0.00 0.01 0.00 0.00 0.00 0.01 0.01 0.02 0.02 0.01 0.01 0.01 0.01 0.01 0.01 0.01 0.01 0.01 0.00 0.01 0.01 0.00 0.00 0.00 0.00 0.01 0.02 0.03 0.05 0.06 0.05 0.05 0.05 0.04 0.03 0.03 0.05 0.06
0.08 0.06 0.02 0.00 0.00 0.00 0.01 0.01 0.00 0.00 0.00 0.01 0.01 0.01 0.01 0.01 0.01 0.01 0.01 0.01 0.01 0.01 0.01 0.01 0.00 0.00 0.00 0.00 0.00 0.01 0.01 0.01 0.02 0.02 0.04 0.05 0.04 0.04 0.05 0.05 0.04 0.04 0.05 0.06
0.07 0.08 0.04 0.01 0.01 0.01 0.01 0.01 0.00 0.00 0.00 0.00 0.00 0.00 0.01 0.01 0.01 0.01 0.01 0.01 0.01 0.01 0.00 0.00 0.00 0.00 0.00 0.00 0.01 0.01 0.01 0.01 0.01 0.02 0.03 0.04 0.04 0.03 0.04 0.05 0.05 0.05 0.06 0.06
0.07 0.06 0.03 0.02 0.01 0.01 0.01 0.00 0.00 0.00 0.00 0.00 0.00 0.00 0.00 0.01 0.01 0.01 0.01 0.01 0.01 0.00 0.00 0.00 0.00 0.00 0.01 0.01 0.01 0.00 0.01 0.01 0.01 0.02 0.02 0.03 0.03 0.03 0.03 0.04 0.04 0.05 0.07 0.07
0.04 0.04 0.03 0.02 0.01 0.01 0.01 0.01 0.01 0.01 0.01 0.01 0.01 0.01 0.01 0.01 0.01 0.01 0.01 0.01 0.00 0.00 0.00 0.00 0.00 0.00 0.01 0.00 0.00 0.00 0.01 0.01 0.01 0.02 0.03 0.03 0.03 0.03 0.03 0.04 0.04 0.05 0.07 0.07
0.02 0.03 0.03 0.03 0.02 0.02 0.01 0.01 0.01 0.01 0.01 0.01 0.01 0.00 0.00 0.00 0.01 0.01 0.00 0.00 0.00 0.00 0.00 0.00 0.00 0.01 0.00 0.00 0.00 0.00 0.01 0.01 0.01 0.01 0.02 0.03 0.03 0.03 0.03 0.03 0.04 0.05 0.07 0.07
0.01 0.01 0.01 0.01 0.01 0.01 0.02 0.02 0.01 0.01 0.00 0.00 0.00 0.00 0.01 0.00 0.00 0.00 0.00 0.00 0.00 0.00 0.00 0.00 0.00 0.00 0.00 0.00 0.00 0.01 0.01 0.01 0.01 0.01 0.02 0.02 0.02 0.02 0.02 0.03 0.03 0.05 0.06 0.07
0.00 0.00 0.00 0.00 0.00 0.00 0.00 0.01 0.01 0.01 0.01 0.00 0.00 0.00 0.01 0.01 0.00 0.00 0.00 0.00 0.00 0.00 0.00 0.00 0.00 0.00 0.00 0.00 0.00 0.01 0.01 0.01 0.01 0.01 0.02 0.01 0.02 0.01 0.02 0.02 0.03 0.04 0.05 0.06
0.00 0.00 0.00 0.00 0.00 0.00 0.00 0.00 0.00 0.00 0.00 0.00 0.00 0.00 0.00 0.00 0.00 0.00 0.00 0.00 0.00 0.00 0.00 0.00 0.00 0.00 0.00 0.00 0.01 0.01 0.01 0.01 0.01 0.01 0.01 0.01 0.01 0.02 0.02 0.03 0.03 0.04 0.04 0.05
0.00 0.01 0.01 0.00 0.00 0.00 0.00 0.00 0.00 0.00 0.00 0.00 0.00 0.00 0.00 0.00 0.00 0.00 0.00 0.00 0.00 0.00 0.00 0.00 0.01 0.00 0.00 0.00 0.01 0.01 0.00 0.01 0.01 0.01 0.01 0.01 0.01 0.02 0.02 0.03 0.03 0.04 0.04 0.04
0.00 0.00 0.00 0.00 0.00 0.00 0.00 0.00 0.00 0.00 0.00 0.00 0.00 0.00 0.00 0.00 0.00 0.00 0.00 0.00 0.00 0.00 0.00 0.00 0.00 0.01 0.00 0.00 0.01 0.01 0.01 0.01 0.01 0.01 0.01 0.01 0.01 0.02 0.02 0.03 0.03 0.03 0.04 0.05
0.00 0.00 0.00 0.01 0.01 0.01 0.01 0.01 0.00 0.00 0.00 0.00 0.00 0.00 0.00 0.00 0.00 0.00 0.00 0.00 0.00 0.00 0.00 0.00 0.00 0.00 0.00 0.00 0.01 0.01 0.01 0.01 0.02 0.02 0.02 0.02 0.02 0.02 0.02 0.02 0.03 0.03 0.03 0.04
0.00 0.00 0.00 0.01 0.01 0.01 0.01 0.01 0.00 0.00 0.00 0.00 0.00 0.00 0.00 0.00 0.00 0.00 0.00 0.00 0.00 0.00 0.00 0.00 0.00 0.00 0.00 0.00 0.01 0.01 0.01 0.02 0.02 0.02 0.02 0.03 0.02 0.02 0.02 0.02 0.02 0.02 0.03 0.04
0.01 0.00 0.00 0.00 0.01 0.01 0.01 0.01 0.01 0.01 0.01 0.01 0.01 0.01 0.00 0.00 0.00 0.00 0.00 0.00 0.00 0.00 0.00 0.00 0.00 0.00 0.00 0.01 0.01 0.01 0.01 0.01 0.02 0.02 0.03 0.03 0.02 0.02 0.02 0.02 0.02 0.02 0.02 0.02
0.01 0.01 0.01 0.01 0.01 0.01 0.01 0.01 0.01 0.01 0.01 0.01 0.01 0.01 0.01 0.01 0.01 0.01 0.01 0.00 0.00 0.00 0.00 0.00 0.01 0.00 0.00 0.01 0.01 0.01 0.01 0.01 0.02 0.02 0.02 0.02 0.02 0.02 0.01 0.01 0.02 0.02 0.02 0.02
0.01 0.01 0.01 0.00 0.01 0.01 0.01 0.01 0.01 0.01 0.01 0.01 0.01 0.01 0.01 0.01 0.01 0.01 0.00 0.00 0.01 0.00 0.00 0.01 0.01 0.01 0.01 0.01 0.01 0.01 0.01 0.01 0.01 0.02 0.02 0.02 0.02 0.02 0.02 0.01 0.02 0.02 0.01 0.02
0.00 0.00 0.00 0.00 0.01 0.01 0.01 0.01 0.01 0.01 0.01 0.01 0.01 0.01 0.01 0.01 0.01 0.01 0.01 0.01 0.01 0.01 0.01 0.01 0.01 0.01 0.01 0.01 0.01 0.01 0.01 0.01 0.01 0.02 0.02 0.02 0.02 0.02 0.02 0.01 0.01 0.02 0.02 0.02
0.00 0.01 0.01 0.01 0.01 0.02 0.02 0.02 0.01 0.01 0.01 0.01 0.01 0.01 0.01 0.01 0.01 0.01 0.01 0.01 0.00 0.00 0.01 0.01 0.01 0.01 0.01 0.01 0.01 0.01 0.01 0.01 0.01 0.01 0.02 0.02 0.02 0.02 0.01 0.01 0.01 0.01 0.02 0.02
0.02 0.02 0.02 0.02 0.02 0.02 0.02 0.02 0.02 0.02 0.01 0.01 0.01 0.01 0.01 0.01 0.01 0.00 0.01 0.01 0.00 0.01 0.01 0.00 0.01 0.01 0.01 0.01 0.01 0.01 0.01 0.01 0.01 0.01 0.02 0.02 0.02 0.01 0.01 0.01 0.01 0.01 0.02 0.02
0.02 0.02 0.02 0.02 0.02 0.02 0.02 0.01 0.01 0.01 0.01 0.01 0.01 0.01 0.01 0.01 0.01 0.01 0.01 0.01 0.01 0.01 0.00 0.00 0.00 0.00 0.01 0.01 0.01 0.01 0.01 0.01 0.02 0.02 0.02 0.02 0.01 0.01 0.01 0.01 0.01 0.01 0.01 0.02
0.02 0.02 0.02 0.02 0.01 0.01 0.01 0.01 0.01 0.01 0.01 0.01 0.01 0.01 0.01 0.01 0.01 0.01 0.01 0.01 0.01 0.00 0.00 0.00 0.00 0.01 0.01 0.01 0.01 0.01 0.01 0.01 0.02 0.02 0.02 0.02 0.01 0.01 0.01 0.01 0.01 0.01 0.01 0.02
0.01 0.01 0.01 0.01 0.01 0.01 0.01 0.01 0.01 0.01 0.00 0.00 0.00 0.01 0.00 0.00 0.00 0.01 0.01 0.00 0.00 0.00 0.00 0.00 0.00 0.01 0.01 0.01 0.01 0.01 0.01 0.02 0.02 0.02 0.02 0.01 0.01 0.01 0.01 0.01 0.01 0.01 0.01 0.01
MSLP
1000.31 1000.34 1000.40 1000.47 1000.53 1000.55 1000.52 1000.44 1000.32 1000.17 1000.02 999.90 999.84 999.86 999.96 1000.17 1000.47 1000.86 1001.34 1001.88 1002.51 1003.19 1003.93 1004.73 1005.56 1006.42 1007.28 1008.11 1008.89 1009.58 1010.17 1010.66 1011.03 1011.32 1011.52 1011.68 1011.80 1011.90 1011.96 1011.98 1011.94 1011.82 1011.59 1011.25
1000.37 1000.30 1000.25 1000.18 1000.09 999.96 999.81 999.63 999.46 999.31 999.21 999.18 999.24 999.39 999.64 999.97 1000.38 1000.86 1001.40 1002.00 1002.68 1003.42 1004.22 1005.09 1006.01 1006.96 1007.91 1008.81 1009.65 1010.37 1010.97 1011.44 1011.78 1012.01 1012.15 1012.23 1012.27 1012.29 1012.27 1012.22 1012.11 1011.92 1011.63 1011.25
1000.40 1000.23 1000.06 999.87 999.64 999.38 999.11 998.85 998.64 998.50 998.46 998.54 998.73 999.04 999.45 999.94 1000.49 1001.09 1001.73 1002.43 1003.17 1003.97 1004.83 1005.75 1006.71 1007.71 1008.69 1009.62 1010.46 1011.19 1011.77 1012.21 1012.50 1012.67 1012.75 1012.75 1012.71 1012.65 1012.55 1012.43 1012.24 1011.99 1011.66 1011.24
1000.37 1000.11 999.83 999.53 999.18 998.82 998.47 998.15 997.92 997.82 997.85 998.04 998.38 998.87 999.45 1000.12 1000.85 1001.60 1002.38 1003.17 1003.99 1004.84 1005.74 1006.68 1007.65 1008.63 1009.59 1010.49 1011.30 1011.98 1012.52 1012.91 1013.14 1013.26 1013.27 1013.22 1013.12 1012.99 1012.83 1012.63 1012.39 1012.09 1011.71 1011.26
1000.34 999.99 999.62 999.22 998.79 998.35 997.95 997.61 997.39 997.33 997.45 997.76 998.26 998.92 999.70 1000.56 1001.47 1002.39 1003.30 1004.20 1005.10 1005.99 1006.90 1007.82 1008.74 1009.67 1010.56 1011.38 1012.11 1012.72 1013.19 1013.51 1013.70 1013.76 1013.73 1013.63 1013.48 1013.30 1013.09 1012.85 1012.56 1012.21 1011.80 1011.33
1000.39 999.96 999.52 999.05 998.57 998.09 997.66 997.32 997.13 997.13 997.34 997.78 998.42 999.25 1000.20 1001.25 1002.32 1003.40 1004.44 1005.44 1006.39 1007.31 1008.20 1009.07 1009.92 1010.75 1011.53 1012.24 1012.86 1013.37 1013.76 1014.02 1014.15 1014.18 1014.11 1013.99 1013.81 1013.60 1013.36 1013.08 1012.75 1012.37 1011.93 1011.43
1000.60 1000.12 999.63 999.12 998.61 998.12 997.70 997.39 997.24 997.31 997.60 998.14 998.91 999.87 1000.97 1002.15 1003.37 1004.57 1005.72 1006.79 1007.78 1008.70 1009.55 1010.35 1011.10 1011.80 1012.45 1013.03 1013.53 1013.94 1014.24 1014.43 1014.52 1014.51 1014.43 1014.29 1014.11 1013.88 1013.61 1013.31 1012.95 1012.54 1012.06 1011.53
1001.03 1000.52 1000.01 999.50 998.99 998.53 998.13 997.86 997.77 997.89 998.25 998.86 999.71 1000.76 1001.95 1003.23 1004.54 1005.82 1007.03 1008.15 1009.15 1010.05 1010.85 1011.56 1012.20 1012.78 1013.30 1013.75 1014.12 1014.42 1014.64 1014.77 1014.82 1014.80 1014.71 1014.56 1014.37 1014.13 1013.85 1013.52 1013.13 1012.69 1012.18 1011.60
1001.65 1001.14 1000.65 1000.16 999.70 999.28 998.94 998.72 998.68 998.85 999.26 999.91 1000.79 1001.88 1003.10 1004.42 1005.76 1007.07 1008.31 1009.43 1010.42 1011.28 1012.02 1012.65 1013.19 1013.65 1014.04 1014.37 1014.64 1014.85 1015.00 1015.08 1015.10 1015.06 1014.96 1014.81 1014.61 1014.36 1014.06 1013.70 1013.28 1012.80 1012.25 1011.63
1002.39 1001.91 1001.46 1001.04 1000.64 1000.30 1000.03 999.88 999.90 1000.11 1000.54 1001.19 1002.08 1003.15 1004.36 1005.66 1006.98 1008.27 1009.49 1010.58 1011.54 1012.36 1013.03 1013.59 1014.04 1014.40 1014.70 1014.93 1015.11 1015.25 1015.34 1015.38 1015.38 1015.32 1015.22 1015.06 1014.84 1014.57 1014.25 1013.86 1013.40 1012.88 1012.28 1011.62
1003.11 1002.69 1002.32 1001.99 1001.69 1001.44 1001.27 1001.21 1001.28 1001.53 1001.98 1002.63 1003.48 1004.50 1005.66 1006.89 1008.15 1009.39 1010.55 1011.59 1012.50 1013.27 1013.89 1014.38 1014.76 1015.05 1015.27 1015.44 1015.56 1015.64 1015.69 1015.71 1015.68 1015.61 1015.49 1015.32 1015.08 1014.79 1014.43 1014.00 1013.51 1012.94 1012.30 1011.60
1003.68 1003.35 1003.09 1002.87 1002.69 1002.57 1002.52 1002.55 1002.71 1003.01 1003.47 1004.11 1004.91 1005.87 1006.95 1008.10 1009.27 1010.42 1011.51 1012.48 1013.33 1014.04 1014.61 1015.05 1015.38 1015.63 1015.80 1015.92 1016.00 1016.05 1016.07 1016.06 1016.02 1015.94 1015.80 1015.61 1015.35 1015.03 1014.63 1014.16 1013.63 1013.02 1012.35 1011.62
1004.04 1003.82 1003.67 1003.59 1003.55 1003.58 1003.66 1003.82 1004.07 1004.44 1004.93 1005.56 1006.33 1007.23 1008.22 1009.27 1010.35 1011.41 1012.40 1013.30 1014.08 1014.73 1015.25 1015.65 1015.95 1016.15 1016.30 1016.39 1016.44 1016.47 1016.48 1016.46 1016.40 1016.30 1016.15 1015.94 1015.66 1015.31 1014.88 1014.37 1013.80 1013.17 1012.47 1011.72
1004.21 1004.11 1004.09 1004.14 1004.26 1004.44 1004.67 1004.97 1005.33 1005.78 1006.33 1006.97 1007.73 1008.57 1009.49 1010.45 1011.43 1012.38 1013.28 1014.09 1014.80 1015.39 1015.86 1016.21 1016.48 1016.66 1016.78 1016.85 1016.89 1016.91 1016.91 1016.87 1016.81 1016.70 1016.54 1016.31 1016.01 1015.63 1015.18 1014.65 1014.05 1013.39 1012.68 1011.93
1004.30 1004.31 1004.42 1004.61 1004.88 1005.21 1005.60 1006.03 1006.52 1007.07 1007.68 1008.36 1009.11 1009.92 1010.78 1011.66 1012.54 1013.40 1014.20 1014.91 1015.54 1016.05 1016.46 1016.77 1017.00 1017.15 1017.25 1017.30 1017.34 1017.35 1017.34 1017.30 1017.23 1017.12 1016.95 1016.71 1016.39 1016.00 1015.53 1014.98 1014.36 1013.69 1012.98 1012.23
1004.47 1004.59 1004.81 1005.13 1005.54 1006.01 1006.53 1007.10 1007.71 1008.35 1009.03 1009.76 1010.51 1011.30 1012.11 1012.92 1013.71 1014.46 1015.16 1015.78 1016.31 1016.75 1017.08 1017.34 1017.51 1017.63 1017.70 1017.74 1017.76 1017.76 1017.75 1017.71 1017.64 1017.53 1017.35 1017.11 1016.79 1016.38 1015.90 1015.34 1014.71 1014.04 1013.32 1012.59
1004.91 1005.12 1005.43 1005.85 1006.35 1006.94 1007.57 1008.25 1008.95 1009.68 1010.43 1011.19 1011.95 1012.71 1013.47 1014.21 1014.91 1015.57 1016.16 1016.67 1017.10 1017.45 1017.71 1017.89 1018.01 1018.09 1018.13 1018.14 1018.15 1018.14 1018.12 1018.09 1018.02 1017.90 1017.73 1017.48 1017.16 1016.75 1016.25 1015.69 1015.06 1014.38 1013.66 1012.93
1005.75 1006.01 1006.39 1006.86 1007.44 1008.08 1008.79 1009.53 1010.30 1011.08 1011.87 1012.64 1013.40 1014.14 1014.84 1015.51 1016.12 1016.67 1017.15 1017.55 1017.88 1018.12 1018.30 1018.41 1018.47 1018.50 1018.51 1018.50 1018.49 1018.47 1018.45 1018.41 1018.34 1018.22 1018.05 1017.80 1017.47 1017.05 1016.55 1015.98 1015.34 1014.65 1013.94 1013.21
1007.02 1007.31 1007.71 1008.21 1008.80 1009.47 1010.19 1010.96 1011.75 1012.54 1013.33 1014.09 1014.82 1015.50 1016.14 1016.72 1017.24 1017.68 1018.05 1018.35 1018.57 1018.72 1018.82 1018.86 1018.87 1018.85 1018.83 1018.80 1018.77 1018.75 1018.71 1018.67 1018.59 1018.47 1018.29 1018.03 1017.69 1017.26 1016.75 1016.16 1015.51 1014.82 1014.10 1013.37
1008.64 1008.94 1009.33 1009.81 1010.38 1011.02 1011.72 1012.46 1013.22 1013.98 1014.73 1015.45 1016.12 1016.74 1017.30 1017.79 1018.21 1018.55 1018.81 1019.01 1019.14 1019.20 1019.23 1019.21 1019.18 1019.13 1019.08 1019.03 1018.99 1018.96 1018.92 1018.86 1018.77 1018.63 1018.44 1018.16 1017.80 1017.36 1016.83 1016.23 1015.57 1014.87 1014.14 1013.40
1010.46 1010.74 1011.09 1011.52 1012.03 1012.61 1013.25 1013.93 1014.62 1015.32 1016.00 1016.65 1017.25 1017.79 1018.25 1018.65 1018.97 1019.21 1019.39 1019.49 1019.55 1019.55 1019.52 1019.47 1019.40 1019.33 1019.27 1019.21 1019.17 1019.12 1019.07 1018.99 1018.88 1018.72 1018.50 1018.20 1017.82 1017.35 1016.81 1016.19 1015.52 1014.80 1014.07 1013.33
1012.26 1012.51 1012.81 1013.18 1013.61 1014.11 1014.67 1015.26 1015.87 1016.48 1017.08 1017.64 1018.15 1018.60 1018.98 1019.29 1019.52 1019.68 1019.77 1019.81 1019.81 1019.77 1019.70 1019.63 1019.55 1019.47 1019.41 1019.35 1019.30 1019.24 1019.17 1019.08 1018.94 1018.75 1018.49 1018.16 1017.75 1017.26 1016.69 1016.06 1015.38 1014.67 1013.93 1013.20
1013.87 1014.08 1014.33 1014.63 1014.99 1015.40 1015.87 1016.37 1016.89 1017.42 1017.93 1018.41 1018.83 1019.20 1019.50 1019.73 1019.88 1019.98 1020.02 1020.01 1019.96 1019.90 1019.82 1019.74 1019.66 1019.59 1019.53 1019.47 1019.42 1019.35 1019.26 1019.14 1018.97 1018.74 1018.44 1018.07 1017.62 1017.11 1016.52 1015.88 1015.20 1014.49 1013.77 1013.05
1015.15 1015.32 1015.53 1015.78 1016.07 1016.42 1016.82 1017.24 1017.69 1018.14 1018.58 1018.98 1019.33 1019.63 1019.87 1020.03 1020.14 1020.18 1020.18 1020.14 1020.08 1020.00 1019.92 1019.84 1019.77 1019.71 1019.66 1019.60 1019.54 1019.46 1019.35 1019.19 1018.98 1018.71 1018.36 1017.95 1017.47 1016.93 1016.33 1015.69 1015.01 1014.32 1013.61 1012.91
1016.04 1016.20 1016.39 1016.60 1016.86 1017.17 1017.51 1017.89 1018.29 1018.68 1019.07 1019.42 1019.72 1019.97 1020.16 1020.28 1020.35 1020.37 1020.34 1020.29 1020.21 1020.13 1020.06 1019.99 1019.92 1019.87 1019.82 1019.76 1019.69 1019.59 1019.44 1019.25 1018.99 1018.67 1018.29 1017.83 1017.32 1016.75 1016.14 1015.50 1014.83 1014.15 1013.46 1012.78
1016.56 1016.73 1016.92 1017.13 1017.39 1017.68 1018.01 1018.36 1018.73 1019.10 1019.46 1019.78 1020.06 1020.28 1020.44 1020.54 1020.59 1020.59 1020.55 1020.49 1020.42 1020.34 1020.26 1020.19 1020.14 1020.08 1020.03 1019.96 1019.86 1019.73 1019.55 1019.32 1019.02 1018.65 1018.22 1017.73 1017.18 1016.58 1015.96 1015.31 1014.64 1013.97 1013.30 1012.63
1016.79 1016.99 1017.21 1017.45 1017.72 1018.03 1018.36 1018.72 1019.09 1019.45 1019.80 1020.11 1020.38 1020.59 1020.74 1020.84 1020.88 1020.88 1020.84 1020.77 1020.70 1020.62 1020.54 1020.47 1020.40 1020.34 1020.27 1020.18 1020.05 1019.89 1019.67 1019.39 1019.05 1018.63 1018.16 1017.62 1017.04 1016.42 1015.77 1015.10 1014.43 1013.75 1013.08 1012.41
Thickness
5509 5516 5515 5516 5520 5520 5518 5519 5516 5526 5533 5547 5549 5549 5549 5547 5544 5542 5540 5537 5534 5530 5526 5523 5520 5518 5516 5513 5511 5509 5506 5503 5501 5499 5497 5495 5494 5492 5490 5489 5488 5487 5486 5486
5495 5504 5505 5507 5514 5516 5517 5519 5519 5523 5530 5544 5542 5539 5537 5537 5536 5534 5531 5529 5525 5521 5516 5512 5509 5507 5504 5501 5499 5497 5494 5491 5490 5488 5486 5484 5482 5480 5478 5477 5476 5475 5475 5474
5480 5489 5490 5493 5512 5514 5513 5517 5519 5519 5531 5534 5530 5530 5530 5529 5528 5526 5523 5519 5515 5511 5506 5501 5498 5495 5492 5490 5487 5485 5482 5480 5478 5476 5474 5472 5470 5468 5467 5466 5465 5464 5464 5463
5466 5471 5471 5505 5516 5518 5515 5518 5519 5521 5524 5525 5525 5523 5519 5518 5517 5515 5512 5508 5503 5498 5494 5490 5486 5484 5481 5478 5475 5472 5470 5468 5466 5464 5462 5461 5459 5457 5456 5455 5454 5454 5454 5453
5456 5458 5471 5493 5504 5506 5503 5506 5512 5513 5515 5515 5513 5508 5504 5505 5505 5503 5499 5494 5490 5486 5482 5478 5474 5472 5469 5465 5463 5460 5458 5456 5455 5453 5451 5449 5447 5446 5445 5445 5445 5445 5445 5443
5452 5455 5465 5490 5500 5503 5499 5491 5502 5503 5504 5503 5500 5491 5492 5493 5491 5488 5484 5480 5476 5472 5469 5465 5462 5459 5456 5453 5450 5448 5447 5446 5444 5442 5440 5438 5436 5435 5434 5434 5435 5435 5434 5432
5447 5449 5462 5479 5486 5491 5480 5485 5491 5493 5493 5491 5488 5487 5483 5480 5476 5473 5470 5467 5464 5460 5455 5452 5450 5447 5444 5442 5439 5439 5437 5435 5433 5431 5429 5427 5426 5425 5424 5424 5424 5423 5423 5421
5440 5444 5456 5469 5472 5472 5473 5476 5479 5480 5481 5478 5475 5472 5469 5466 5463 5459 5456 5454 5451 5446 5442 5440 5438 5436 5433 5431 5430 5428 5427 5425 5423 5420 5419 5418 5416 5414 5413 5413 5413 5412 5412 5411
5439 5446 5452 5456 5460 5462 5463 5464 5465 5465 5466 5465 5462 5459 5456 5452 5449 5446 5444 5441 5437 5434 5430 5428 5426 5424 5422 5421 5419 5418 5416 5414 5412 5410 5408 5407 5405 5404 5403 5402 5400 5401 5400 5400
5426 5434 5440 5444 5447 5451 5452 5453 5454 5454 5454 5453 5450 5446 5442 5439 5436 5434 5431 5428 5425 5422 5419 5417 5415 5413 5411 5410 5409 5407 5405 5403 5401 5399 5398 5396 5394 5393 5391 5390 5388 5388 5388 5388
5416 5425 5429 5433 5436 5439 5440 5441 5441 5441 5440 5440 5438 5434 5431 5427 5424 5422 5420 5416 5414 5412 5409 5407 5405 5402 5401 5400 5398 5396 5394 5393 5391 5389 5387 5385 5384 5382 5380 5379 5377 5377 5377 5376
5412 5419 5419 5422 5426 5427 5428 5428 5429 5428 5427 5426 5425 5422 5419 5415 5412 5409 5407 5405 5403 5400 5398 5396 5393 5391 5390 5389 5388 5386 5385 5382 5380 5378 5376 5374 5373 5372 5372 5370 5370 5369 5368 5367
5409 5412 5412 5414 5415 5417 5417 5417 5417 5417 5416 5412 5410 5409 5406 5403 5400 5397 5395 5393 5391 5389 5386 5384 5382 5380 5379 5378 5377 5375 5374 5372 5370 5368 5366 5364 5362 5361 5361 5362 5360 5359 5358 5358
5398 5400 5401 5402 5402 5403 5404 5404 5403 5402 5401 5400 5397 5395 5392 5389 5387 5384 5382 5381 5379 5377 5375 5373 5371 5369 5368 5367 5366 5365 5363 5362 5360 5357 5355 5353 5351 5350 5349 5350 5350 5349 5348 5348
5387 5390 5391 5390 5390 5389 5390 5390 5388 5386 5385 5384 5382 5381 5379 5376 5374 5372 5370 5369 5367 5364 5363 5361 5360 5359 5358 5357 5356 5354 5353 5351 5349 5347 5345 5343 5342 5340 5339 5339 5338 5338 5338 5338
5376 5377 5377 5377 5376 5376 5376 5376 5374 5373 5372 5371 5369 5367 5366 5364 5362 5359 5357 5356 5354 5353 5351 5350 5349 5348 5347 5346 5345 5344 5342 5343 5341 5338 5336 5334 5332 5331 5329 5329 5328 5328 5328 5328
5366 5366 5365 5364 5364 5363 5363 5363 5362 5361 5360 5358 5357 5356 5354 5352 5349 5347 5345 5344 5343 5341 5340 5339 5339 5338 5337 5336 5335 5334 5332 5332 5332 5329 5326 5324 5323 5321 5320 5320 5319 5319 5319 5319
5355 5356 5356 5356 5354 5353 5351 5351 5350 5349 5348 5347 5345 5343 5342 5340 5338 5336 5334 5332 5331 5330 5330 5329 5329 5328 5328 5327 5326 5324 5323 5321 5320 5318 5317 5315 5314 5313 5312 5311 5311 5311 5311 5312
5343 5344 5344 5345 5344 5343 5341 5339 5338 5337 5336 5335 5334 5331 5330 5328 5327 5325 5323 5322 5321 5320 5320 5320 5321 5320 5319 5318 5318 5315 5314 5312 5311 5310 5308 5308 5307 5305 5304 5303 5303 5304 5304 5305
5331 5332 5331 5331 5331 5330 5328 5327 5326 5324 5324 5323 5322 5320 5318 5316 5315 5314 5313 5312 5312 5312 5312 5312 5311 5311 5310 5309 5310 5307 5305 5304 5303 5302 5301 5299 5298 5297 5297 5297 5297 5297 5298 5299
5319 5319 5319 5318 5317 5317 5316 5315 5314 5313 5313 5312 5311 5309 5307 5306 5305 5304 5303 5303 5303 5304 5304 5305 5303 5302 5302 5301 5301 5299 5298 5296 5295 5294 5293 5292 5291 5291 5291 5291 5291 5291 5292 5293
5307 5307 5306 5306 5306 5304 5303 5303 5303 5302 5302 5301 5300 5298 5297 5296 5295 5294 5294 5294 5295 5297 5296 5295 5294 5295 5295 5295 5293 5292 5290 5289 5288 5287 5286 5285 5285 5285 5285 5285 5285 5286 5286 5287
5296 5296 5295 5295 5294 5292 5292 5291 5291 5291 5290 5290 5289 5289 5288 5287 5286 5286 5286 5286 5287 5289 5288 5287 5288 5290 5289 5286 5285 5284 5283 5282 5281 5280 5279 5279 5279 5279 5279 5279 5279 5280 5281 5282
5287 5286 5285 5284 5283 5283 5282 5281 5281 5281 5281 5280 5280 5280 5279 5278 5278 5277 5278 5280 5281 5281 5280 5280 5282 5282 5280 5278 5277 5276 5275 5275 5274 5274 5273 5273 5273 5273 5273 5273 5274 5275 5276 5277
5276 5276 5275 5275 5274 5274 5273 5273 5272 5272 5272 5271 5271 5271 5270 5270 5270 5270 5270 5270 5272 5272 5271 5271 5273 5273 5270 5269 5269 5269 5268 5268 5268 5268 5268 5268 5268 5268 5268 5268 5269 5270 5271 5272
5266 5266 5266 5266 5265 5265 5265 5265 5265 5264 5264 5264 5263 5262 5262 5262 5262 5262 5262 5262 5263 5263 5262 5262 5262 5262 5262 5261 5261 5262 5262 5262 5262 5262 5262 5262 5262 5263 5263 5264 5264 5266 5267 5269
5258 5258 5257 5258 5258 5258 5258 5257 5257 5256 5256 5255 5255 5255 5254 5254 5254 5254 5254 5254 5254 5254 5254 5255 5255 5255 5255 5255 5255 5256 5256 5257 5257 5257 5257 5258 5258 5258 5259 5259 5261 5262 5263 5265